Regional Weather Roundup
Issued by NWS Newport/Morehead, NC

Current Version | Previous Version | Graphics & Text | Print | Product List | Glossary Off
Versions: 1 2 3 4 5 6 7 8 9 10 11 12 13 14 15 16 17 18 19 20 21 22 23 24 25 26 27 28 29 30 31 32 33 34 35 36 37 38 39 40 41 42 43 44 45 46 47 48 49 50

000
ASUS42 KMHX 271913
RWRMHX
WEATHER ROUNDUP FOR EASTERN NORTH CAROLINA
NATIONAL WEATHER SERVICE NEWPORT/MOREHEAD CITY NC
300 PM EDT MON MAR 27 2017

NOTE: "FAIR" INDICATES FEW OR NO CLOUDS BELOW 12,000 FEET
WITH NO SIGNIFICANT WEATHER AND/OR OBSTRUCTIONS TO VISIBILITY

NCZ015>017-031-032-045>047-102-103-272000-
NORTH COAST

CITY           SKY/WX    TMP DP  RH WIND       PRES   REMARKS
EDENTON        MOSUNNY   78  56  46 SW8       30.06F
ELIZABETH CITY MOSUNNY   76  54  46 SW15G24   30.06F
KITTY HAWK     NOT AVBL
MANTEO         CLOUDY    71  56  58 S15       30.08F

$$

NCZ045>047-081-094-103-104-272000-
CENTRAL COAST

CITY           SKY/WX    TMP DP  RH WIND       PRES   REMARKS
FRISCO         SUNNY     76  56  49 SW8       30.10F

$$

NCZ095-097-098-100-101-272000-
SOUTHERN COAST

CITY           SKY/WX    TMP DP  RH WIND       PRES   REMARKS
BEAUFORT       SUNNY     74  56  53 S12       30.11F
CEDAR ISLAND   NOT AVBL
JACKSONVILLE   CLOUDY    74  55  51 S9        30.08F
PINEY ISLAND   CLOUDY   N/A N/A N/A SW10      30.09F
WILMINGTON     PTSUNNY   76  56  49 S13G18    30.08F


$$

NCZ011>013-027>030-043-044-078>080-089-090>093-098-272000-
COASTAL PLAIN

CITY           SKY/WX    TMP DP  RH WIND       PRES   REMARKS
AHOSKIE          N/A     74  56  53 S6        30.06F
CLINTON        SUNNY     78  58  49 SW6       30.07F
ELIZABETHTOWN  MOSUNNY   77  55  47 S5        30.07F
GOLDSBORO      MOSUNNY   78  56  47 SW10      30.05F
GREENVILLE     SUNNY     77  57  50 W10       30.07F
HAVELOCK       PTSUNNY   77  51  40 S17       30.10F
KENANSVILLE    CLOUDY    75  55  50 S7        30.08F
KINSTON        PTSUNNY   77  54  44 S8        30.07F
NEW BERN       CLOUDY    76  52  43 S6        30.09F
RICHLANDS      CLOUDY    76  56  49 S9        30.09F
ROCKY MOUNT    SUNNY     76  58  53 S13G18    30.06F
WASHINGTON     MOSUNNY   77  54  45 S8        30.06F
WHITEVILLE     PTSUNNY   79  55  44 S10       30.06F

$$

AMZ130-135-150-152-154-156-158-170-250-252-270-ANZ085-086-088-633-658-670-272000-
MARINE OBSERVATIONS

STATION/POSITION TIME  TEMP    WIND        PRES    WAVE   SWELL
                       AIR SEA DIR/SP/G            HT/PER HT/PER
                 (UTC) (F)     (DEG/KT/KT) (MB)    (FT/S) (FT/S)
CHESAPEAKE LIGHT NOT AVBL
64 E VA BEACH    1850   56 51  180/  8/  8 1018.7    4/ 7   3/ 7
DUCK             1848   62 49  140/ 10/ 10 1017.8
2 E DUCK         1830      56                N/A     3/ 8   2/18
OREGON INLET     1842   69 55  170/  9/ 12 1018.9
13E OREGON INLT  1848      54                N/A     4/ 8   3/ 8
HATTERAS CG      1848   73 60  180/  3/  6 1019.3
DIAMOND BUOY     1850   71 76  230/  8/ 10 1019.8    4/ 9   3/ 9
CAPE LOOKOUT     1900   67     150/  8/  9 1019.4
BEAUFORT LAB     1848   69 58  180/  9/ 11 1018.8
30 SE NEW RVR IN 1808   70     100/  2/  4 1020.6
30 SE NEW RVR IN 1843      70                N/A     4/ 9   2/11
27 SE WRIGHTSVLE 1808   70 64  220/  4/  6 1019.7
5 SE WRIGHTSVLE  1808   66 62  160/  6/ 10 1020.1
225 S CAPE HAT   1850   69 72  100/  6/ 10 1020.2    6/10   7/10
41 SE CHARLESTON 1850   71 73  230/  4/  6 1019.4    4/10   3/10

$$




USA.gov is the U.S. government's official web portal to all federal, state and local government web resources and services.